Regional Weather Roundup
Issued by NWS San Angelo, TX

Home | Current Version | Previous Version | Text Only | Print | Product List | Glossary On
Versions: 1 2 3 4 5 6 7 8 9 10 11 12 13 14 15 16 17 18 19 20 21 22 23 24 25 26 27 28 29 30 31 32 33 34 35 36 37 38 39 40 41 42 43 44 45 46 47 48 49 50
000
ASUS44 KSJT 312211
RWRSJT
WEST CENTRAL TEXAS REGIONAL WEATHER ROUNDUP
NATIONAL WEATHER SERVICE SAN ANGELO TX
500 PM CDT TUE MAY 31 2016

NOTE: "FAIR" INDICATES FEW OR NO CLOUDS BELOW 12,000 FEET WITH NO
SIGNIFICANT WEATHER AND/OR OBSTRUCTIONS TO VISIBILITY.

TXZ049-054-064>066-071>073-076>078-098-099-113-114-127-128-139-140-
154-155-168>170-312300
...LOCATIONS ACROSS WEST CENTRAL TEXAS...

CITY           SKY/WX    TMP DP  RH WIND       PRES   REMARKS
SAN ANGELO     CLOUDY    87  61  41 CALM      29.77F
ABILENE        LGT RAIN  67  32  27 E18G26    29.86S
DYESS AFB      LGT RAIN  68  64  88 SE12      29.87R
JUNCTION       CLOUDY    72  68  87 E10       29.83F
SWEETWATER     CLOUDY    74  67  78 NE23G30   29.90R
BROWNWOOD      CLOUDY    70  68  94 SE10G17   29.82F
COLEMAN        CLOUDY    76  64  67 E8        29.83F
SONORA         MOSUNNY   84  63  48 VRB3      29.87R
OZONA          FAIR      88  54  31 S9        29.84S
BRADY          NOT AVBL
$$

TEXAS PANHANDLE/OKLAHOMA PANHANDLE

CITY           SKY/WX    TMP DP  RH WIND       PRES   REMARKS
AMARILLO       CLOUDY    79  51  37 E12       29.94F
BORGER         MOSUNNY   78  54  43 VRB5      29.94F
CANADIAN       SUNNY     78  60  53 NE13      29.91F
DALHART        PTSUNNY   74  52  46 VRB3      29.99S
DUMAS          PTCLDY    76  55  48 E14       29.97S
GUYMON         NOT AVBL
HEREFORD       CLOUDY    79  53  40 E15G23    29.94F
PAMPA          CLEAR     76  56  50 E14       29.96S
PERRYTON       CLOUDY    76  57  50 NE16      29.94F
$$

SOUTHERN PANHANDLE/SOUTH PLAINS/ROLLING PLAINS

CITY           SKY/WX    TMP DP  RH WIND       PRES   REMARKS
LUBBOCK        PTSUNNY   79  57  46 E9        29.89F
SNYDER           N/A     73  60  63 NE16      29.86F
CHILDRESS      CLOUDY    85  58  39 NE6       29.85F
SEMINOLE       CLEAR     83  49  29 N6        29.86F
$$

PERMIAN BASIN

CITY           SKY/WX    TMP DP  RH WIND       PRES   REMARKS
MIDLAND        SUNNY     88  50  27 E7        29.81F
ODESSA         SUNNY     86  51  29 VRB7      29.82F
WINK           SUNNY     87  48  25 E7        29.77F
$$

FAR WEST/SOUTHWEST MOUNTAINS/TRANS PECOS

CITY           SKY/WX    TMP DP  RH WIND       PRES   REMARKS
ALPINE         PTCLDY    83  53  35 SW16G23   29.96S
DRYDEN           N/A     81  61  50 SW12      29.80F
EL PASO        CLOUDY    84  40  21 SW9       29.87S
FORT STOCKTON  NOT AVBL
GUADALUPE PASS NOT AVBL
MARFA          MOSUNNY   79  50  36 S9G20     29.94F
PECOS          CLEAR     89  50  25 E7        29.77F
$$

DALLAS/FORT WORTH METROPLEX

CITY           SKY/WX    TMP DP  RH WIND       PRES   REMARKS
DFW AIRPORT    TSTM      71  67  87 W22G33    29.85S VSB 1
FTW MEACHAM    TSTM      70  66  87 S15G22    29.89S
DAL-EXECUTIVE  TSTM      70  65  84 W20G31    29.86R
GRAND PRAIRIE  CLOUDY    68  68 100 SW18G30   29.88S THUNDER
ADDISON        TSTM      72  70  94 MISG      29.87R
MESQUITE       CLOUDY    79  72  78 SW6       29.85R
LANCASTER      CLOUDY    78  71  78 SW3       29.85F THUNDER
$$

NORTH CENTRAL TEXAS

CITY           SKY/WX    TMP DP  RH WIND       PRES   REMARKS
SHRMAN/DENISON LGT RAIN  66  62  86 E13G22    29.90F
GAINESVILLE    CLOUDY    73  66  80 E9        29.90R
BRIDGEPORT     RAIN      69  69 100 SW6       29.91R
DENTON         TSTM      72  69  90 E13G20    29.86R FOG
WAXAHACHIE     RAIN      72  67  87 NW12G17   29.88R
GRANBURY       RAIN      68  67  95 W6        29.91S
$$

WESTERN NORTH TEXAS

CITY           SKY/WX    TMP DP  RH WIND       PRES   REMARKS
WICHITA FALLS  CLOUDY    76  65  68 S8        29.85R
VERNON         CLOUDY    83  59  43 SE14      29.84F
BRECKENRIDGE   TSTM      69  67  95 SE13G22   29.87F
COMANCHE       LGT RAIN  68  68 100 NW8       29.87S
$$

CENTRAL AND SOUTH CENTRAL TEXAS

CITY           SKY/WX    TMP DP  RH WIND       PRES   REMARKS
AUSTIN/BERGSTM TSTM      70  69  97 N13       29.82F FOG
WACO           RAIN      78  74  87 W3        29.84F FOG
HILLSBORO      LGT RAIN  76  73  91 W5        29.86S
TEMPLE         TSTM      75  75 100 SW9       29.86F
KILLEEN-GRAY   LGT RAIN  73  70  88 S7        29.85F
FORT HOOD      LGT RAIN  73  72  94 SW7       29.83F
GEORGETOWN     RAIN      73  72  94 S9        29.89R
LAGO VISTA     TSTM      70  69  95 CALM      29.89S
SAN MARCOS     TSTM      72  70  94 CALM      29.82F
NEW BRAUNFELS  LGT RAIN  69  68  96 NE6       29.80F
RANDOLPH AFB   DRIZZLE   69  69 100 N6        29.83S
SAN ANTONIO    CLOUDY    72  67  84 N7        29.82F
STINSON        LGT RAIN  72  68  87 NE8       29.79F
PLEASANTON     NOT AVBL
LA GRANGE        N/A     80  76  86 CALM      29.80S
GIDDINGS       LGT RAIN  78  73  83 CALM      29.87S VSB 3/4
$$

EAST TEXAS

CITY           SKY/WX    TMP DP  RH WIND       PRES   REMARKS
PARIS          CLOUDY    68  59  73 NE9G21    29.93S
CLARKSVILLE    NOT AVBL
TYLER          CLOUDY    85  71  63 S7        29.83S
LONGVIEW       CLOUDY    85  70  60 S10       29.82F
PALESTINE      CLOUDY    84  72  66 S3        29.84F
NACOGDOCHES    CLOUDY    84  66  54 S8        29.83F
$$

TEXAS HILL COUNTRY AND EDWARDS PLATEAU

CITY           SKY/WX    TMP DP  RH WIND       PRES   REMARKS
LLANO          CLOUDY    70  70 100 S3        29.87F FOG
HORSESHOE BAY  LGT RAIN  69  67  96 W5        29.89F
KERRVILLE      CLOUDY    72  68  89 NE8       29.88F
FREDERICKSBRG  CLOUDY    68  65  90 E7        29.86F
ROCKSPRINGS    PTCLDY    81  68  65 E13G20    29.87R
HONDO          CLOUDY    72  70  93 N13       29.80F
UVALDE         CLOUDY    79  71  76 E6        29.78F
DEL RIO        CLOUDY    80  69  69 S8        29.79S
$$

SOUTHEAST TEXAS

CITY           SKY/WX    TMP DP  RH WIND       PRES   REMARKS
COLLEGE STN    CLOUDY    82  71  69 S3        29.83S
CALDWELL       DRIZZLE   79  75  89 CALM      29.87S
CROCKETT       CLOUDY    84  68  58 S8        29.87S
BRENHAM        CLOUDY    82  74  75 CALM      29.84S
HUNTSVILLE     CLOUDY    86  65  49 S6        29.84S
CONROE         CLOUDY    85  69  58 SE9       29.84S
HOUSTON BUSH   PTSUNNY   83  68  60 SE13      29.83S
HOUSTON HOBBY  CLOUDY    85  67  54 S9        29.83S
PERLAND        MOSUNNY   86  69  56 S9        29.85F
WHARTON        CLOUDY    83  71  67 SE13      29.81F
$$

THE UPPER TEXAS COAST

CITY           SKY/WX    TMP DP  RH WIND       PRES   REMARKS
ORANGE         CLEAR     85  65  51 S8        29.87F
PORT ARTHUR    SUNNY     85  69  58 S12       29.83F
GALVESTON      MOSUNNY   83  74  74 S15       29.86S
ANGLETON       PTSUNNY   85  72  65 S14       29.83F
BAY CITY       CLOUDY    84  73  69 SE9       29.82F
$$

TEXAS COASTAL BEND, RIO GRANDE PLAINS DEEP SOUTH TEXAS

CITY           SKY/WX    TMP DP  RH WIND       PRES   REMARKS
VICTORIA       LGT RAIN  83  73  72 SE15      29.77F
BEEVILLE       FAIR      83  75  78 SE13G20   29.72F
ROCKPORT       MOSUNNY   84  73  69 SE20      29.76F
PORT ARANSAS   MOCLDY    83  76  80 SE16G24   29.76F
PORT LAVACA    CLOUDY    82  75  79 SE13G21   29.79F
CORPUS CHRISTI CLOUDY    83  73  72 SE22G30   29.73F THUNDER
KINGSVILLE NAS CLOUDY    84  77  79 SE21G30   29.71F THUNDER
COTULLA        TSTM      74  73  97 NW12      29.78R VSB 1/4
LAREDO         CLOUDY    94  71  47 S9G18     29.70F
BROWNSVILLE    PTSUNNY   86  73  65 S21G30    29.75F
PORT ISABEL    MOSUNNY   90  74  59 SE21      29.74F
HEBBRONVILLE   MOCLDY    91  69  47 S13G20    29.70F
MCALLEN        MOSUNNY   93  74  53 SE23G32   29.72F
WESLACO        MOSUNNY   91  71  51 S20       29.72F
FALFURRIAS     PTCLDY    94  71  46 SE15      29.68F
EDINBURG       CLEAR     94  71  47 S20G26    29.70F
$$




USA.gov is the U.S. government's official web portal to all federal, state and local government web resources and services.